Flag for U.S.A. Weather past 2 weeks in Compton, California, U.S.A.

Now
58 °F

Sunny.


Feels Like: 58 °F
Forecast: 47 / 63 °F
Wind: 3 mph from North

Location: Hawthorne Municipal Airport

Current Time: Mar 3, 2015 at 9:20:14 AM

Latest Report: Mar 3, 2015 at 8:53 AM


Visibility: 10 mi

Pressure: 29.98 "Hg

Humidity: 56%

Dew point: 42 °F

Location of ComptonLocation

Historic Weather in Compton — Graph

°F

Compton temperature yesterday

Maximum temperature yesterday: 62 °F (at 1:53 PM)
Minimum temperature yesterday: 51 °F (at 12:53 AM)
Average temperature yesterday: 56 °F

Past Weeks' High & Low Weather Summary

 TemperatureHumidityPressure
High75 °F (Feb 24, 1:53 PM)93% (Feb 23, 2:53 AM)30.24 "Hg (Feb 23, 2:53 AM)
Low48 °F (Feb 24, 4:53 AM)12% (Feb 24, 1:53 PM)29.75 "Hg (Feb 27, 11:53 PM)
Average60 °F69%29.98 "Hg
* Reported Feb 16 7:53 AM — Mar 3 7:53 AM, Compton, Weather by CustomWeather, © 2015

Note: Actual official high and low records may vary slightly from our data, if they occured in-between our weather recording intervals... More about our weather records

Advertising

Compton weather history for previous 24 hours

 ConditionsComfort  
Time TempWeatherWind HumidityBarometerVisibility
7:53 AM
Tue, Mar 3
54 °FSunny.6 mph67%29.97 "Hg10 mi
6:53 AM50 °FSunny.No wind80%29.95 "Hg10 mi
5:53 AM50 °FClear.No wind80%29.94 "Hg10 mi
4:53 AM50 °FClear.No wind77%29.94 "Hg10 mi
3:53 AM50 °FClear.No wind80%29.93 "Hg10 mi
2:53 AM51 °FClear.No wind80%29.95 "Hg10 mi
1:53 AM53 °FPassing clouds.3 mph80%29.96 "Hg10 mi
12:53 AM53 °FLight rain. Overcast.No wind86%29.97 "Hg10 mi
11:53 PM
Mon, Mar 2
54 °FRain. Mostly cloudy.5 mph80%29.98 "Hg5 mi
10:53 PM55 °FLight rain. Mostly cloudy.3 mph80%29.98 "Hg10 mi
9:53 PM54 °FRain. Overcast.8 mph83%29.98 "Hg7 mi
8:53 PM57 °FPassing clouds.8 mph69%29.96 "Hg10 mi
7:53 PM58 °FClear.5 mph60%29.96 "Hg10 mi
6:53 PM58 °FClear.No wind60%29.94 "Hg10 mi
5:53 PM58 °FClear.7 mph60%29.93 "Hg10 mi
4:53 PM59 °FSunny.9 mph56%29.93 "Hg10 mi
3:53 PM61 °FSunny.7 mph44%29.90 "Hg10 mi
2:53 PM62 °FPartly sunny.8 mph48%29.90 "Hg10 mi
1:53 PM62 °FScattered clouds.9 mph41%29.90 "Hg10 mi
12:53 PM60 °FPartly sunny.6 mph47%29.91 "Hg10 mi
11:53 AM60 °FSunny.N/A52%29.93 "Hg10 mi
10:53 AM56 °FSunny.No wind77%29.93 "Hg10 mi
9:53 AM55 °FLight rain. Mostly cloudy.No wind74%29.93 "Hg10 mi
Weather by CustomWeather, © 2015

See weather overviewHow to use our weather pages